Location: Bronnegerveen
(52.9548°N, 6.8388°E)
Time: 01:27:12
(UTC+00:00)

Cosmos 1850 Rocket - Pass Details

Date: 15 June 2025
Orbit: 751 x 781 km, 74.0° (Epoch: 07 July)

Event Time Altitude Azimuth Distance (km) Brightness Sun altitude
Exits shadow 01:12:44 13° 221° (SW) 2,081 5.7 -10.7°
Maximum altitude 01:17:19 60° 300° (WNW) 865 4.3 -10.4°
Drops below altitude 10° 01:22:26 10° 21° (NNE) 2,286 8.1 -10.1°
Sets 01:24:51 0° 25° (NNE) 3,215 9.6 -10.0°
